Parkersburg, WV

7:19 AM EST on December 11, 2017 (GMT -0500)
Wood County Wilson

Weather History for KPKB - October, 2013

Change the Weather History Date:

Saturday, October 5, 2013

  Actual Average Record
Temperature  
Mean Temperature 72 °F 59 °F  
Max Temperature 83 °F 70 °F 91 °F (2007)
Min Temperature 61 °F 48 °F 31 °F (1965)
Degree Days  
Heating Degree Days 0 7  
Month to date heating degree days 0 33  
Since 1 July heating degree days 83 109  
Cooling Degree Days 7 1  
Month to date cooling degree days 23 5  
Year to date cooling degree days 947 941  
Growing Degree Days 22 (Base 50)    
Moisture  
Dew Point 64 °F    
Average Humidity 79    
Maximum Humidity 100    
Minimum Humidity 58    
Precipitation  
Precipitation T in 0.09 in 1.04 in (1995)
Month to date precipitation 0.02 0.44  
Year to date precipitation 33.94 32.31  
Sea Level Pressure  
Sea Level Pressure 30.08 in    
Wind  
Wind Speed 3 mph (South)    
Max Wind Speed 15 mph    
Max Gust Speed 21 mph    
Visibility 8 miles    
Events      
T = Trace of Precipitation, MM = Missing Value Source: NWS Daily Summary

Daily Weather History Graph

Daily Weather History Graph

Search for Another Location

Airport or City:

Trip Planner

Search our weather history database for the weather conditions in past years. The results will help you decide how hot, cold, wet, or windy it might be!

Date:

Astronomy

Oct. 05, 2013 Rise Set
Actual Time 7:25 AM EDT 7:01 PM EDT
Civil Twilight 6:59 AM EDT 7:28 PM EDT
Nautical Twilight 6:28 AM EDT 7:59 PM EDT
Astronomical Twilight 5:56 AM EDT 8:30 PM EDT
Moon 8:03 AM EDT (10/5) 7:20 PM EDT (10/5)
Length of Visible Light 12h 29m
Length of Day
11h 35m
New Moon, 0% of the Moon is Illuminated
Oct 5
New Moon
Oct 11
First Quarter
Oct 18
Full
Oct 26
Last Quarter
Nov 3
New

Hourly Weather History & Observations

Time (EDT) Temp. Heat Index Dew Point Humidity Pressure Visibility Wind Dir Wind Speed Gust Speed Precip Events Conditions
12:53 AM 66.9 °F - 64.0 °F 90% 30.10 in 9.0 mi Calm Calm - N/A   Clear
1:53 AM 64.0 °F - 63.0 °F 96% 30.10 in 7.0 mi Calm Calm - N/A   Clear
2:53 AM 63.0 °F - 62.1 °F 97% 30.11 in 4.0 mi Calm Calm - N/A   Clear
3:53 AM 62.1 °F - 61.0 °F 96% 30.10 in 2.5 mi Calm Calm - N/A   Clear
4:07 AM 62.6 °F - 60.8 °F 94% 30.12 in 4.0 mi ENE 3.5 mph - N/A   Clear
4:31 AM 62.6 °F - 60.8 °F 94% 30.12 in 2.5 mi Calm Calm - N/A   Clear
4:40 AM 62.6 °F - 60.8 °F 94% 30.12 in 4.0 mi Calm Calm - N/A   Clear
4:53 AM 62.1 °F - 60.1 °F 93% 30.11 in 3.0 mi Calm Calm - N/A   Clear
5:53 AM 63.0 °F - 62.1 °F 97% 30.11 in 5.0 mi Calm Calm - N/A   Clear
6:53 AM 61.0 °F - 60.1 °F 97% 30.12 in 10.0 mi SSE 3.5 mph - N/A   Clear
7:53 AM 64.0 °F - 62.1 °F 93% 30.12 in 10.0 mi SE 3.5 mph - N/A   Partly Cloudy
8:53 AM 66.9 °F - 63.0 °F 87% 30.13 in 10.0 mi Calm Calm - N/A   Partly Cloudy
9:53 AM 68.0 °F - 64.9 °F 90% 30.12 in 8.0 mi Calm Calm - N/A   Overcast
10:53 AM 72.0 °F - 64.9 °F 78% 30.12 in 10.0 mi SSW 3.5 mph - N/A   Mostly Cloudy
11:53 AM 77.0 °F - 66.0 °F 69% 30.11 in 10.0 mi South 6.9 mph - N/A   Clear
12:53 PM 80.1 °F 82.1 °F 66.0 °F 62% 30.09 in 10.0 mi Variable 3.5 mph - N/A   Scattered Clouds
1:53 PM 82.0 °F 84.1 °F 66.0 °F 58% 30.06 in 10.0 mi SSW 9.2 mph - N/A   Scattered Clouds
2:53 PM 82.9 °F 85.0 °F 66.0 °F 56% 30.04 in 10.0 mi South 13.8 mph 17.3 mph N/A   Mostly Cloudy
3:53 PM 82.0 °F 84.1 °F 66.0 °F 58% 30.03 in 10.0 mi SSW 12.7 mph 16.1 mph N/A   Scattered Clouds
4:53 PM 79.0 °F - 66.0 °F 64% 30.03 in 10.0 mi SW 4.6 mph - N/A   Clear
5:53 PM 78.1 °F - 68.0 °F 71% 30.02 in 10.0 mi SSW 4.6 mph - N/A   Clear
6:53 PM 75.9 °F - 66.9 °F 74% 30.02 in 10.0 mi South 3.5 mph - N/A   Partly Cloudy
7:53 PM 75.0 °F - 66.9 °F 76% 30.02 in 10.0 mi Calm Calm - N/A   Clear
8:53 PM 73.0 °F - 68.0 °F 84% 30.02 in 10.0 mi SSE 3.5 mph - N/A   Partly Cloudy
9:53 PM 72.0 °F - 68.0 °F 87% 30.01 in 10.0 mi SE 3.5 mph - 0.00 in   Overcast
10:53 PM 72.0 °F - 66.9 °F 84% 30.01 in 10.0 mi ESE 3.5 mph - N/A   Scattered Clouds
11:53 PM 70.0 °F - 66.9 °F 90% 29.99 in 6.0 mi Calm Calm - N/A   Mostly Cloudy